CAPE
137 296 576 873 1266 1368 1448 1191 1049 894 1186 1142 1103 1074 1040 921 744 568 284 5 0 0 0 29 60 340 509 604 536 316 650 702 621 551 718 395 93 45 9 0 0 0 192
142 111 280 797 1545 1519 1460 1454 1238 1421 1170 1032 1008 920 711 564 363 268 67 0 0 0 0 35 93 362 467 199 91 416 526 389 496 466 313 293 266 36 0 0 0 0 0
68 78 654 1008 1606 1633 1448 1541 1574 1443 1156 650 529 452 324 286 259 84 0 5 0 1 186 595 555 500 500 333 77 183 321 286 381 310 103 146 200 195 28 0 0 0 0
44 466 1046 1375 1501 1426 1581 1452 1390 1428 1191 944 394 285 395 472 448 105 1 131 101 159 336 746 615 422 436 70 0 39 237 187 143 181 84 1 307 422 79 0 0 0 1
2 263 837 1042 1307 1142 1129 1283 1280 1250 1306 1123 935 517 578 646 586 252 68 146 430 646 545 686 485 343 290 305 139 14 4 161 167 5 0 47 372 261 9 0 1 0 0
0 65 683 798 775 796 1247 1158 1210 1251 1188 1160 1154 1062 744 779 836 980 484 726 555 646 674 616 263 183 243 336 542 509 364 93 142 1 58 319 285 49 0 0 0 0 0
36 24 36 494 629 608 647 718 1163 1189 1092 1100 1061 1108 1090 980 982 1192 1425 1215 670 753 879 791 327 84 68 240 532 420 112 87 70 205 226 144 13 0 1 0 0 0 1
4 0 0 0 58 466 597 612 571 411 860 1140 1208 1124 1130 1114 1129 1290 1457 1458 1167 842 983 875 447 122 47 52 422 436 89 0 0 240 293 118 1 9 0 0 0 0 2
0 0 0 0 0 0 3 230 461 534 447 326 723 1124 1185 1075 1114 1182 1096 1255 1212 1091 1206 1172 808 443 86 35 127 714 114 0 0 21 81 74 0 0 21 1 1 1 1
0 0 0 0 0 0 0 0 0 255 404 463 379 330 539 612 609 957 930 985 1209 1204 1414 1328 1211 910 512 423 253 479 80 0 0 0 3 0 0 0 0 3 4 1 2
0 0 0 0 0 0 0 0 0 0 0 86 225 467 259 767 802 855 822 767 874 1109 1199 1269 1185 1058 636 317 298 180 30 17 0 0 0 0 0 0 0 8 45 9 5
0 0 0 0 0 0 0 0 0 0 0 0 0 19 166 365 460 570 546 504 550 691 794 1083 1154 1022 532 581 291 6 2 0 0 0 0 0 0 0 0 39 465 110 13
0 0 0 0 0 0 0 0 0 0 0 0 0 0 0 0 2 260 807 1029 993 550 1124 850 751 448 337 562 652 185 0 0 0 0 0 0 0 0 0 15 611 602 140
0 0 0 0 0 0 0 0 0 0 0 0 0 0 0 0 0 0 16 448 918 852 733 946 779 512 371 582 494 465 233 5 0 0 0 0 0 0 0 24 495 898 641
0 0 0 0 0 0 0 0 0 0 0 0 0 0 0 0 0 0 0 0 55 495 863 796 658 819 586 589 500 416 310 402 181 9 0 0 0 0 0 0 147 360 832
0 0 0 0 0 0 0 0 0 0 0 0 0 0 0 0 0 0 0 0 0 10 282 687 543 468 422 684 426 420 518 453 459 275 164 2 12 0 0 0 1 186 678
0 0 0 0 0 0 0 0 0 0 0 0 0 0 0 0 0 0 0 0 0 0 1 11 67 325 267 396 376 456 447 464 529 314 461 258 17 10 0 0 0 50 851
0 0 0 0 0 0 0 0 0 0 0 0 0 0 0 0 0 0 0 0 0 0 0 0 15 236 453 381 361 372 283 218 456 346 651 423 439 167 21 25 0 0 247
0 0 0 0 0 0 0 0 0 0 0 0 0 0 0 0 0 0 0 0 0 0 0 0 0 0 28 153 290 363 501 515 457 297 301 652 415 406 271 75 104 76 25
0 0 0 0 0 0 0 0 0 0 0 0 0 0 0 0 0 0 0 0 0 0 0 0 0 0 0 5 11 20 123 418 541 497 523 395 627 640 455 352 291 163 158
0 0 0 0 0 0 0 0 0 0 0 0 0 0 0 0 0 0 0 0 0 0 0 0 0 0 0 0 9 19 21 24 347 492 496 452 373 513 636 551 472 434 194
0 0 0 0 0 0 0 0 0 0 0 0 0 0 0 0 5 0 23 32 20 7 3 5 6 4 4 8 17 41 29 0 14 423 593 629 526 489 586 495 365 241 55
0 0 0 0 0 0 0 0 0 0 0 0 0 0 0 0 0 0 12 27 46 70 63 61 50 53 37 19 27 37 16 0 17 35 326 494 608 551 351 544 266 59 43
0 0 0 0 0 0 0 0 0 0 0 0 0 0 0 0 0 0 0 0 0 4 31 46 73 80 69 67 63 54 65 64 85 25 5 136 246 308 320 499 455 221 27
0 0 0 0 0 0 0 0 0 0 0 0 0 0 0 0 0 0 0 0 0 0 0 0 5 9 38 91 77 70 63 61 71 107 66 2 15 151 438 748 572 298 24
0 0 0 0 0 0 0 0 0 0 0 0 0 0 0 0 0 0 0 0 0 0 0 0 0 3 3 15 35 27 84 85 77 77 79 41 52 1 202 322 639 676 229
CIN
-129 -45 -20 -13 -2 -1 0 0 -5 -12 0 -1 -2 -3 -1 0 -1 -13 -78 -162 0 0 0 -297 -256 -101 -61 -53 -66 -117 -47 -27 -35 -50 -25 -72 -227 -284 -369 0 0 0 -154
-147 -147 -76 -14 -4 -4 -4 0 -2 0 -2 -5 -3 -3 -8 -11 -42 -77 -195 0 0 0 0 -253 -187 -87 -67 -142 -248 -92 -62 -87 -59 -66 -100 -92 -106 -291 0 0 0 0 0
-171 -178 -13 -35 -10 -5 -6 -5 -3 -3 -1 -22 -22 -27 -57 -63 -67 -172 0 -273 0 -66 -102 -22 -34 -53 -62 -102 -250 -156 -111 -112 -83 -108 -220 -170 -135 -145 -333 0 0 0 0
-202 -61 -13 -17 -12 -7 -5 -5 -7 -5 -4 -4 -47 -64 -28 -10 -9 -134 -61 -111 -142 -102 -50 -2 -18 -50 -59 -239 0 -169 -135 -159 -184 -176 -248 0 -107 -74 -232 0 0 0 0
-133 -148 -17 -7 -6 -8 -7 -7 -5 -5 -4 -4 -7 -25 -9 -2 0 -51 -140 -80 -6 -2 -14 0 -14 -49 -73 -85 -170 -144 -38 -169 -176 -81 0 -275 -95 -137 -212 0 0 0 0
0 -224 -27 -9 -10 -5 -4 -3 -5 -4 -5 -4 -5 -2 -5 0 0 0 -3 -1 -1 -2 -1 -1 -30 -70 -60 -58 -36 -51 -88 -200 -186 0 -286 -122 -126 -251 0 0 0 0 0
-236 -260 -245 -39 -12 -12 -7 -14 -4 -3 -2 -2 -3 -2 -3 0 0 0 0 -1 -3 -2 0 0 -10 -104 -126 -39 -5 -40 -176 -140 -211 -154 -151 -193 -3 0 0 0 0 0 0
-153 0 0 0 -228 -31 -9 -9 -10 -28 -8 -2 -1 -1 -2 -3 -1 0 0 0 -1 -1 0 0 -1 -60 -128 -139 -1 -7 -105 0 0 -123 -107 -181 -2 -79 0 0 0 0 0
0 0 0 0 0 0 -55 -71 -12 -6 -10 -43 -10 -2 -3 -4 -3 -2 -3 -1 0 0 0 0 0 -1 -65 -122 -46 0 -96 0 0 -38 -166 -187 0 0 -222 0 0 0 0
0 0 0 0 0 0 0 0 0 -35 -14 -12 -12 -31 -9 -9 -11 -8 -7 -6 -1 -1 0 0 0 0 0 -1 -9 -1 -76 0 0 0 0 0 0 0 0 0 0 0 0
0 0 0 0 0 0 0 0 0 0 0 -72 -17 -1 -24 -1 0 0 -2 -4 -11 -3 -1 0 0 0 -3 -4 -2 -25 -64 -15 0 0 0 0 0 0 0 -41 -142 -33 0
0 0 0 0 0 0 0 0 0 0 0 0 0 -22 -19 -3 -9 -10 -5 -2 -7 -11 -5 0 0 -2 -4 0 -4 -143 -27 0 0 0 0 0 0 0 0 -84 -1 -64 -27
0 0 0 0 0 0 0 0 0 0 0 0 0 0 0 0 -4 -15 0 0 0 -3 0 -3 -1 0 0 0 0 -10 0 0 0 0 0 0 0 0 0 -33 0 0 -28
0 0 0 0 0 0 0 0 0 0 0 0 0 0 0 0 0 0 -102 -16 -1 0 0 -1 0 0 0 0 0 0 -3 -1 0 0 0 0 0 0 0 -25 0 0 0
0 0 0 0 0 0 0 0 0 0 0 0 0 0 0 0 0 0 0 0 -90 -9 -1 0 -1 0 0 0 0 0 0 0 -4 -10 0 0 0 0 0 0 -3 0 0
0 0 0 0 0 0 0 0 0 0 0 0 0 0 0 0 0 0 0 0 0 -52 -10 0 0 0 0 0 0 0 0 0 0 0 -14 0 -48 0 0 0 -3 -3 0
0 0 0 0 0 0 0 0 0 0 0 0 0 0 0 0 0 0 0 0 0 0 0 -11 -52 0 0 0 0 0 0 0 0 0 0 -1 -48 -62 0 0 0 -40 0
0 0 0 0 0 0 0 0 0 0 0 0 0 0 0 0 0 0 0 0 0 0 0 0 0 -8 0 0 0 0 -2 -5 0 -2 0 0 0 -33 -88 -38 0 0 -25
0 0 0 0 0 0 0 0 0 0 0 0 0 0 0 0 0 0 0 0 0 0 0 0 0 0 -19 -19 -2 0 0 0 0 -7 -9 0 0 0 -6 -59 -54 -19 -5
0 0 0 0 0 0 0 0 0 0 0 0 0 0 0 0 0 0 0 0 0 0 0 0 0 0 0 0 0 -4 -38 0 0 -1 0 -3 0 0 -1 -10 -13 -45 -24
0 0 0 0 0 0 0 0 0 0 0 0 0 0 0 0 0 0 0 0 0 0 0 0 0 0 0 0 0 0 0 0 0 0 -1 -5 -13 -6 0 -9 -13 -18 -33
0 0 0 0 0 0 0 0 0 0 0 0 0 0 0 0 0 0 0 0 0 0 0 0 0 0 0 0 0 0 0 0 0 0 0 -1 -3 -3 -1 -1 -8 -20 -7
0 0 0 0 0 0 0 0 0 0 0 0 0 0 0 0 0 0 0 0 0 0 0 0 0 0 0 0 0 0 0 0 -1 -1 -1 -1 0 -1 -1 0 -1 -35 -26
0 0 0 0 0 0 0 0 0 0 0 0 0 0 0 0 0 0 0 0 0 0 0 0 0 0 0 0 0 0 0 0 0 0 0 -108 -37 -14 -12 -4 -1 -31 -17
0 0 0 0 0 0 0 0 0 0 0 0 0 0 0 0 0 0 0 0 0 0 0 0 -3 -2 -1 0 0 0 0 0 0 0 0 0 0 0 -27 0 -12 -22 -62
0 0 0 0 0 0 0 0 0 0 0 0 0 0 0 0 0 0 0 0 0 0 0 0 0 0 0 0 0 0 0 0 0 0 0 0 0 0 0 0 0 0 -11
Wind_Speed
7 10 9 8 6 9 10 10 14 17 16 15 14 15 14 13 12 10 8 nan nan nan nan nan nan 9 9 10 8 9 11 13 13 14 14 12 nan nan nan nan nan nan 8
9 8 5 3 8 9 11 12 11 11 16 18 17 17 16 15 14 13 nan nan nan nan nan nan nan 12 11 13 nan 11 11 11 12 14 15 13 13 nan nan nan nan nan nan
nan nan 9 6 10 11 11 13 15 12 11 11 16 20 19 19 18 nan nan nan nan nan 11 8 14 17 17 16 nan 12 12 11 12 12 9 8 14 13 nan nan nan nan nan
nan 14 17 10 11 11 11 11 14 16 14 14 12 13 13 16 20 21 nan 18 16 15 16 19 18 18 17 nan nan nan 15 13 12 11 nan nan 15 16 nan nan nan nan nan
nan 18 20 24 14 13 12 12 11 13 15 16 17 16 15 14 13 13 nan 19 19 19 19 22 22 20 19 18 17 nan nan 16 16 nan nan nan 15 17 nan nan nan nan nan
nan nan 23 25 25 25 18 13 13 12 13 13 16 18 17 16 15 15 14 13 13 15 19 23 23 23 22 21 19 20 19 nan 17 nan nan 21 11 nan nan nan nan nan nan
nan nan nan 29 29 28 28 26 21 16 15 14 15 15 16 17 16 16 16 17 16 15 16 19 19 nan nan 21 21 24 23 nan nan 20 18 19 nan nan nan nan nan nan nan
nan nan nan nan nan 31 32 32 31 29 25 19 18 18 16 18 18 17 16 16 18 18 19 18 19 19 nan nan 20 25 nan nan nan 19 21 23 nan nan nan nan nan nan nan
nan nan nan nan nan nan nan 36 35 33 32 30 27 24 21 20 21 20 20 22 19 19 19 20 20 20 nan nan 20 20 22 nan nan nan nan nan nan nan nan nan nan nan nan
nan nan nan nan nan nan nan nan nan 35 34 32 31 29 27 25 24 22 24 26 25 22 21 21 21 22 23 22 22 22 nan nan nan nan nan nan nan nan nan nan nan nan nan
nan nan nan nan nan nan nan nan nan nan nan nan 33 34 29 28 25 27 28 27 29 27 25 23 24 24 25 27 25 26 nan nan nan nan nan nan nan nan nan nan nan nan nan
nan nan nan nan nan nan nan nan nan nan nan nan nan nan 30 30 28 29 29 31 28 28 28 27 27 28 29 27 32 nan nan nan nan nan nan nan nan nan nan nan 26 27 nan
nan nan nan nan nan nan nan nan nan nan nan nan nan nan nan nan nan 26 28 30 30 31 31 31 33 33 29 32 32 32 nan nan nan nan nan nan nan nan nan nan 28 30 28
nan nan nan nan nan nan nan nan nan nan nan nan nan nan nan nan nan nan nan 25 26 26 27 31 34 34 33 32 33 31 30 nan nan nan nan nan nan nan nan nan 21 23 27
nan nan nan nan nan nan nan nan nan nan nan nan nan nan nan nan nan nan nan nan nan 30 29 29 30 29 30 30 33 34 32 32 31 nan nan nan nan nan nan nan 20 20 21
nan nan nan nan nan nan nan nan nan nan nan nan nan nan nan nan nan nan nan nan nan nan 33 34 37 36 35 35 33 30 27 32 34 34 37 nan nan nan nan nan nan 22 21
nan nan nan nan nan nan nan nan nan nan nan nan nan nan nan nan nan nan nan nan nan nan nan nan nan 41 41 40 38 36 35 31 30 30 35 39 nan nan nan nan nan nan 27
nan nan nan nan nan nan nan nan nan nan nan nan nan nan nan nan nan nan nan nan nan nan nan nan nan 44 46 46 46 44 44 43 40 36 33 36 39 42 nan nan nan nan 32
nan nan nan nan nan nan nan nan nan nan nan nan nan nan nan nan nan nan nan nan nan nan nan nan nan nan nan 50 49 48 45 45 42 45 42 40 37 39 43 nan 44 nan nan
nan nan nan nan nan nan nan nan nan nan nan nan nan nan nan nan nan nan nan nan nan nan nan nan nan nan nan nan nan nan 45 47 47 48 47 49 45 42 41 41 47 48 41
nan nan nan nan nan nan nan nan nan nan nan nan nan nan nan nan nan nan nan nan nan nan nan nan nan nan nan nan nan nan nan nan 45 48 51 51 50 50 45 48 50 52 52
nan nan nan nan nan nan nan nan nan nan nan nan nan nan nan nan nan nan nan nan nan nan nan nan nan nan nan nan nan nan nan nan nan 54 54 54 50 52 51 52 55 51 nan
nan nan nan nan nan nan nan nan nan nan nan nan nan nan nan nan nan nan nan nan nan nan nan nan nan nan nan nan nan nan nan nan nan nan 53 54 54 63 64 62 49 nan nan
nan nan nan nan nan nan nan nan nan nan nan nan nan nan nan nan nan nan nan nan nan nan nan nan nan nan nan nan nan nan nan nan nan nan nan 60 66 65 62 61 65 67 nan
nan nan nan nan nan nan nan nan nan nan nan nan nan nan nan nan nan nan nan nan nan nan nan nan nan nan nan nan nan nan nan nan nan 47 nan nan nan 70 75 73 55 49 nan
nan nan nan nan nan nan nan nan nan nan nan nan nan nan nan nan nan nan nan nan nan nan nan nan nan nan nan nan nan nan nan nan nan nan nan nan nan nan 75 74 75 71 64
Wind_Direction
206 181 180 163 337 319 310 302 283 272 270 271 274 277 278 278 279 283 290 nan nan nan nan nan nan 255 280 293 285 285 278 262 256 265 261 264 nan nan nan nan nan nan 224
160 179 191 154 346 328 317 320 314 305 278 272 271 271 275 277 279 281 nan nan nan nan nan nan nan 261 270 281 nan 287 276 273 270 269 267 265 261 nan nan nan nan nan nan
nan nan 202 290 326 326 328 323 320 314 314 306 286 277 275 275 277 nan nan nan nan nan 278 289 278 273 272 277 nan 280 283 275 275 271 266 266 273 271 nan nan nan nan nan
nan 218 214 279 304 308 314 322 322 323 320 313 307 310 307 289 277 275 nan 279 282 278 279 279 279 278 281 nan nan nan 278 273 272 279 nan nan 267 270 nan nan nan nan nan
nan 244 230 231 252 290 301 308 313 314 318 318 311 307 308 308 307 306 nan 279 274 270 282 281 281 283 283 285 285 nan nan 276 268 nan nan nan 262 272 nan nan nan nan nan
nan nan 245 240 243 246 250 276 294 306 311 309 312 313 309 307 310 314 309 301 287 278 288 285 281 280 281 284 287 284 279 nan 276 nan nan 267 249 nan nan nan nan nan nan
nan nan nan 245 246 248 252 253 257 275 293 300 302 305 315 316 312 311 305 305 302 296 304 304 294 nan nan 279 279 282 280 nan nan 273 267 261 nan nan nan nan nan nan nan
nan nan nan nan nan 253 253 252 254 257 258 272 290 297 304 307 310 303 302 303 308 310 311 306 301 299 nan nan 289 281 nan nan nan 269 270 265 nan nan nan nan nan nan nan
nan nan nan nan nan nan nan 255 255 256 256 258 261 269 282 289 294 294 294 295 298 301 302 303 306 304 nan nan 299 293 289 nan nan nan nan nan nan nan nan nan nan nan nan
nan nan nan nan nan nan nan nan nan 258 256 256 261 264 269 272 284 286 287 294 293 292 293 293 293 297 298 298 297 294 nan nan nan nan nan nan nan nan nan nan nan nan nan
nan nan nan nan nan nan nan nan nan nan nan nan 262 263 265 275 280 291 290 279 287 286 286 286 289 287 287 286 286 291 nan nan nan nan nan nan nan nan nan nan nan nan nan
nan nan nan nan nan nan nan nan nan nan nan nan nan nan 265 264 268 258 259 271 275 278 281 281 283 285 283 274 279 nan nan nan nan nan nan nan nan nan nan nan 277 279 nan
nan nan nan nan nan nan nan nan nan nan nan nan nan nan nan nan nan 276 275 272 274 281 272 280 281 279 281 277 272 274 nan nan nan nan nan nan nan nan nan nan 276 281 283
nan nan nan nan nan nan nan nan nan nan nan nan nan nan nan nan nan nan nan 280 283 283 278 274 269 274 278 278 278 273 273 nan nan nan nan nan nan nan nan nan 289 286 291
nan nan nan nan nan nan nan nan nan nan nan nan nan nan nan nan nan nan nan nan nan 282 283 278 276 280 281 279 278 278 275 273 273 nan nan nan nan nan nan nan 288 289 291
nan nan nan nan nan nan nan nan nan nan nan nan nan nan nan nan nan nan nan nan nan nan 278 280 280 278 278 281 285 285 281 279 275 272 270 nan nan nan nan nan nan 284 285
nan nan nan nan nan nan nan nan nan nan nan nan nan nan nan nan nan nan nan nan nan nan nan nan nan 278 276 274 277 276 279 282 277 278 273 270 nan nan nan nan nan nan 284
nan nan nan nan nan nan nan nan nan nan nan nan nan nan nan nan nan nan nan nan nan nan nan nan nan 275 276 277 276 275 274 274 278 278 272 272 273 269 nan nan nan nan 285
nan nan nan nan nan nan nan nan nan nan nan nan nan nan nan nan nan nan nan nan nan nan nan nan nan nan nan 271 270 272 274 275 277 276 279 276 275 272 269 nan 285 nan nan
nan nan nan nan nan nan nan nan nan nan nan nan nan nan nan nan nan nan nan nan nan nan nan nan nan nan nan nan nan nan 268 270 272 274 274 273 273 274 273 272 269 271 279
nan nan nan nan nan nan nan nan nan nan nan nan nan nan nan nan nan nan nan nan nan nan nan nan nan nan nan nan nan nan nan nan 272 274 273 275 274 271 270 271 267 266 264
nan nan nan nan nan nan nan nan nan nan nan nan nan nan nan nan nan nan nan nan nan nan nan nan nan nan nan nan nan nan nan nan nan 271 270 271 271 265 270 270 265 263 nan
nan nan nan nan nan nan nan nan nan nan nan nan nan nan nan nan nan nan nan nan nan nan nan nan nan nan nan nan nan nan nan nan nan nan 264 266 266 267 265 263 261 nan nan
nan nan nan nan nan nan nan nan nan nan nan nan nan nan nan nan nan nan nan nan nan nan nan nan nan nan nan nan nan nan nan nan nan nan nan 265 266 264 264 262 260 259 nan
nan nan nan nan nan nan nan nan nan nan nan nan nan nan nan nan nan nan nan nan nan nan nan nan nan nan nan nan nan nan nan nan nan 275 nan nan nan 269 264 255 252 248 nan
nan nan nan nan nan nan nan nan nan nan nan nan nan nan nan nan nan nan nan nan nan nan nan nan nan nan nan nan nan nan nan nan nan nan nan nan nan nan 261 256 247 248 253